Location: St. Louis
(38.6270°N, 90.1994°W)
Time: 05:44:31
(UTC-06:00)

A-11 Canister half - Pass Details

Date: 04 December 2021
Orbit: 1524 x 1684 km, 47.3° (Epoch: 22 January)

Event Time Altitude Azimuth Distance (km) Brightness Sun altitude
Exits shadow 05:15:03 26° 304° (NW) 2,843 9.8 -20.5°
Maximum altitude 05:21:02 56° 11° (N) 1,910 9.4 -19.4°
Drops below altitude 10° 05:30:38 10° 88° (E) 3,823 12.2 -17.5°
Sets 05:33:48 0° 93° (E) 4,785 13.2 -16.9°
